EW7239 Weather Reports


Display with metric or nautical units.
time (UTC)temp
F
wind
direction
speed
MPH
gust
MPH
rain 1hr
in
rain 24hr
in
rain mn
in
humidity
%
barometer
mb
20260905062140 68 228 1.0 4.0 0.00 0.00 0.00 70 1014.1
20260905061419 68 228 1.0 3.0 0.00 0.00 0.00 69 1014.2
20260905060903 69 228 2.0 3.0 0.00 0.00 0.00 69 1014.1
20260905060404 69 228 2.0 4.0 0.00 0.00 0.00 68 1014.1
20260905060133 69 228 2.0 4.0 0.00 0.00 0.00 68 1014.1
20260905055403 69 228 2.0 3.0 0.00 0.00 0.00 68 1014.0
20260905054904 69 228 2.0 4.0 0.00 0.00 0.00 68 1014.0
20260905054403 69 228 2.0 4.0 0.00 0.00 0.00 68 1014.0
20260905053902 69 228 2.0 4.0 0.00 0.00 0.00 67 1014.0
20260905053631 69 228 2.0 4.0 0.00 0.00 0.00 67 1014.0
20260905052858 70 228 2.0 4.0 0.00 0.00 0.00 67 1014.0
20260905052359 70 228 2.0 6.0 0.00 0.00 0.00 67 1014.0
20260905051857 70 228 2.0 6.0 0.00 0.00 0.00 66 1014.0
20260905051356 70 228 2.0 4.0 0.00 0.00 0.00 65 1013.8
20260905050856 70 228 2.0 4.0 0.00 0.00 0.00 65 1013.9
20260905050352 70 228 3.0 5.0 0.00 0.00 0.00 65 1013.8
20260905045852 70 228 3.0 7.0 0.00 0.00 0.00 65 1013.9
20260905045624 71 228 4.0 7.0 0.00 0.00 0.00 65 1013.9
20260905044852 71 228 3.0 6.0 0.00 0.00 0.00 65 1013.8
20260905044348 71 228 3.0 7.0 0.00 0.00 0.00 64 1013.8
20260905043849 71 229 4.0 7.0 0.00 0.00 0.00 64 1013.7
20260905043619 71 229 4.0 7.0 0.00 0.00 0.00 63 1013.6
20260905043119 71 229 3.0 6.0 0.00 0.00 0.00 63 1013.6
20260905042343 71 229 2.0 6.0 0.00 0.00 0.00 62 1013.5
20260905042116 72 229 3.0 6.0 0.00 0.00 0.00 61 1013.5
20260905040845 72 229 3.0 6.0 0.00 0.00 0.00 60 1013.4
20260905040340 73 229 2.0 6.0 0.00 0.00 0.00 58 1013.4
20260905035840 73 229 3.0 6.0 0.00 0.00 0.00 57 1013.3
20260905035340 73 229 3.0 5.0 0.00 0.00 0.00 56 1013.2
20260905034840 74 229 3.0 4.0 0.00 0.00 0.00 55 1013.1
20260905034336 74 229 3.0 7.0 0.00 0.00 0.00 54 1013.0
20260905033837 74 229 4.0 8.0 0.00 0.00 0.00 54 1013.0
20260905033336 74 229 4.0 8.0 0.00 0.00 0.00 54 1012.9
20260905032837 74 229 5.0 11.0 0.00 0.00 0.00 53 1012.8
20260905032335 75 230 5.0 11.0 0.00 0.00 0.00 53 1012.7
20260905032108 75 228 5.0 10.0 0.00 0.00 0.00 54 1012.7
20260905031336 75 234 4.0 10.0 0.00 0.00 0.00 53 1012.6
20260905030836 75 234 4.0 10.0 0.00 0.00 0.00 53 1012.5
20260905030335 75 234 4.0 10.0 0.00 0.00 0.00 52 1012.5
20260905025836 76 234 5.0 9.0 0.00 0.00 0.00 51 1012.3
20260905025337 76 233 5.0 9.0 0.00 0.00 0.00 51 1012.3
20260905024336 76 230 5.0 10.0 0.00 0.00 0.00 49 1012.1
20260905024108 77 225 6.0 10.0 0.00 0.00 0.00 47 1012.1
20260905022833 78 221 6.0 11.0 0.00 0.00 0.00 44 1012.1
20260905022333 78 225 5.0 11.0 0.00 0.00 0.00 41 1012.1
20260905021833 79 244 5.0 11.0 0.00 0.00 0.00 36 1012.1
20260905021335 79 234 5.0 9.0 0.00 0.00 0.00 33 1012.1
20260905020833 80 235 4.0 8.0 0.00 0.00 0.00 31 1012.1
20260905020333 80 232 5.0 13.0 0.00 0.00 0.00 32 1012.1
20260905015834 80 225 6.0 13.0 0.00 0.00 0.00 33 1012.1
20260905015606 80 223 8.0 13.0 0.00 0.00 0.00 32 1012.1
20260905014834 80 221 7.0 13.0 0.00 0.00 0.00 33 1012.1
20260905014333 80 225 7.0 12.0 0.00 0.00 0.00 36 1012.0
20260905013834 80 229 8.0 14.0 0.00 0.00 0.00 39 1011.9
20260905013335 80 227 8.0 15.0 0.00 0.00 0.00 44 1012.0
20260905012835 81 218 8.0 15.0 0.00 0.00 0.00 48 1012.0
20260905011834 81 220 9.0 15.0 0.00 0.00 0.00 47 1012.1
20260905011334 81 215 9.0 15.0 0.00 0.00 0.00 47 1012.1
20260905010835 81 218 8.0 16.0 0.00 0.00 0.00 48 1012.1
20260905010335 82 205 8.0 16.0 0.00 0.00 0.00 47 1012.1
20260905005835 82 225 8.0 16.0 0.00 0.00 0.00 49 1012.1
20260905005333 82 221 9.0 18.0 0.00 0.00 0.00 49 1012.1
20260905004834 82 231 9.0 18.0 0.00 0.00 0.00 49 1012.1
20260905004333 82 232 9.0 19.0 0.00 0.00 0.00 48 1012.1
20260905004105 83 209 8.0 19.0 0.00 0.00 0.00 48 1012.1
20260905003332 83 225 8.0 16.0 0.00 0.00 0.00 47 1012.1
20260905002835 83 210 8.0 15.0 0.00 0.00 0.00 47 1012.1
20260905002333 83 225 8.0 15.0 0.00 0.00 0.00 47 1012.0
20260905001833 83 225 9.0 17.0 0.00 0.00 0.00 46 1012.0
20260905001347 84 217 9.0 17.0 0.00 0.00 0.00 45 1011.9
20260905000832 84 222 9.0 16.0 0.00 0.00 0.00 45 1012.0
20260905000333 85 229 9.0 15.0 0.00 0.00 0.00 44 1011.9
20260904235832 85 224 9.0 15.0 0.00 0.00 0.00 43 1012.0
20260904235332 86 205 8.0 15.0 0.00 0.00 0.00 41 1012.0
20260904234834 86 242 8.0 15.0 0.00 0.00 0.00 40 1012.0
20260904234333 86 211 8.0 15.0 0.00 0.00 0.00 39 1012.0
20260904233834 87 219 8.0 15.0 0.00 0.00 0.00 40 1011.9
20260904233334 87 213 8.0 14.0 0.00 0.00 0.00 39 1011.9
20260904232834 87 219 7.0 14.0 0.00 0.00 0.00 37 1011.8
20260904232333 88 263 7.0 14.0 0.00 0.00 0.00 37 1011.8
20260904232103 88 221 7.0 14.0 0.00 0.00 0.00 35 1011.8
20260904231333 88 216 7.0 11.0 0.00 0.00 0.00 35 1011.8
20260904230833 88 246 6.0 11.0 0.00 0.00 0.00 36 1011.9
20260904230334 88 240 6.0 11.0 0.00 0.00 0.00 34 1012.0
20260904225835 89 222 5.0 11.0 0.00 0.00 0.00 34 1012.0
20260904225333 89 227 5.0 13.0 0.00 0.00 0.00 33 1012.1
20260904224605 89 217 6.0 13.0 0.00 0.00 0.00 32 1012.1
20260904223833 88 219 6.0 13.0 0.00 0.00 0.00 32 1012.1
20260904223333 87 252 6.0 11.0 0.00 0.00 0.00 34 1012.2
20260904222334 88 254 5.0 11.0 0.00 0.00 0.00 33 1012.2
20260904221834 88 228 6.0 11.0 0.00 0.00 0.00 33 1012.2
20260904221604 88 257 5.0 11.0 0.00 0.00 0.00 32 1012.3
20260904220832 88 227 4.0 10.0 0.00 0.00 0.00 32 1012.5
20260904220333 88 230 5.0 10.0 0.00 0.00 0.00 32 1012.5
20260904215833 89 223 4.0 10.0 0.00 0.00 0.00 31 1012.5
20260904215335 88 231 5.0 9.0 0.00 0.00 0.00 32 1012.5
20260904214833 88 231 6.0 9.0 0.00 0.00 0.00 32 1012.5
20260904214603 88 221 4.0 10.0 0.00 0.00 0.00 32 1012.6
20260904213833 88 203 4.0 10.0 0.00 0.00 0.00 33 1012.6
20260904213333 88 229 5.0 13.0 0.00 0.00 0.00 33 1012.6
20260904212833 87 225 4.0 13.0 0.00 0.00 0.00 34 1012.7
20260904212335 88 232 3.0 12.0 0.00 0.00 0.00 35 1012.7
20260904211834 87 227 5.0 12.0 0.00 0.00 0.00 36 1012.7
20260904211334 86 221 6.0 12.0 0.00 0.00 0.00 38 1012.8
20260904210834 86 215 5.0 11.0 0.00 0.00 0.00 38 1012.8
20260904210336 86 225 5.0 11.0 0.00 0.00 0.00 37 1012.9
20260904205833 86 249 5.0 9.0 0.00 0.00 0.00 38 1012.9
20260904205604 87 211 4.0 9.0 0.00 0.00 0.00 39 1012.9
20260904204833 86 213 3.0 8.0 0.00 0.00 0.00 37 1012.9
20260904204605 87 209 2.0 8.0 0.00 0.00 0.00 36 1013.0
20260904203833 86 208 3.0 8.0 0.00 0.00 0.00 36 1013.0
20260904203333 86 208 4.0 8.0 0.00 0.00 0.00 36 1013.0
20260904202333 86 207 3.0 7.0 0.00 0.00 0.00 35 1013.1
20260904201832 85 212 4.0 7.0 0.00 0.00 0.00 37 1013.1
20260904201333 85 212 5.0 10.0 0.00 0.00 0.00 38 1013.3
20260904200834 84 211 5.0 10.0 0.00 0.00 0.00 37 1013.3
20260904200333 84 221 4.0 10.0 0.00 0.00 0.00 36 1013.3
20260904195835 85 213 4.0 9.0 0.00 0.00 0.00 36 1013.4
20260904195334 84 203 3.0 9.0 0.00 0.00 0.00 32 1013.3
20260904194833 84 220 2.0 8.0 0.00 0.00 0.00 37 1013.5
20260904194604 83 235 2.0 7.0 0.00 0.00 0.00 40 1013.6
20260904193833 83 228 3.0 7.0 0.00 0.00 0.00 40 1013.6
20260904193334 83 223 4.0 7.0 0.00 0.00 0.00 40 1013.6
20260904192833 82 225 3.0 7.0 0.00 0.00 0.00 39 1013.9
20260904192606 83 223 3.0 6.0 0.00 0.00 0.00 41 1013.9
20260904191834 82 223 3.0 6.0 0.00 0.00 0.00 41 1013.9
20260904191337 82 221 3.0 9.0 0.00 0.00 0.00 43 1014.1
20260904190834 81 220 3.0 9.0 0.00 0.00 0.00 44 1014.2
20260904190333 80 219 3.0 7.0 0.00 0.00 0.00 44 1014.3
20260904185833 80 219 2.0 8.0 0.00 0.00 0.00 49 1014.4
20260904185333 80 219 2.0 8.0 0.00 0.00 0.00 48 1014.4
20260904184835 79 213 3.0 7.0 0.00 0.00 0.00 49 1014.4
20260904184333 79 213 4.0 8.0 0.00 0.00 0.00 49 1014.5
20260904184103 79 214 3.0 8.0 0.00 0.00 0.00 51 1014.6
20260904183333 79 215 3.0 6.0 0.00 0.00 0.00 50 1014.6
20260904183105 78 215 3.0 7.0 0.00 0.00 0.00 52 1014.6
20260904182333 78 217 3.0 7.0 0.00 0.00 0.00 54 1014.6
20260904181834 78 218 2.0 7.0 0.00 0.00 0.00 55 1014.6
20260904181333 77 219 2.0 5.0 0.00 0.00 0.00 52 1014.5
20260904180833 76 219 3.0 5.0 0.00 0.00 0.00 55 1014.6
20260904180334 76 219 4.0 7.0 0.00 0.00 0.00 56 1014.6
20260904180106 76 219 3.0 7.0 0.00 0.00 0.00 57 1014.6
20260904175334 76 219 2.0 7.0 0.00 0.00 0.00 58 1014.6
20260904174834 76 219 2.0 7.0 0.00 0.00 0.00 58 1014.6
20260904174334 76 219 1.0 3.0 0.00 0.00 0.00 59 1014.6
20260904173833 76 219 2.0 6.0 0.00 0.00 0.00 60 1014.7
20260904173334 75 219 3.0 6.0 0.00 0.00 0.00 62 1014.7
20260904172834 75 219 2.0 6.0 0.00 0.00 0.00 63 1014.7
20260904172333 75 219 1.0 6.0 0.00 0.00 0.00 64 1014.6
20260904171834 74 213 1.0 3.0 0.00 0.00 0.00 65 1014.7
20260904171333 74 213 2.0 4.0 0.00 0.00 0.00 66 1014.7
20260904170833 73 213 2.0 5.0 0.00 0.00 0.00 66 1014.6
20260904170604 73 213 2.0 5.0 0.00 0.00 0.00 68 1014.6
20260904165834 73 213 2.0 5.0 0.00 0.00 0.00 69 1014.6
20260904165334 72 217 2.0 5.0 0.00 0.00 0.00 70 1014.5
20260904164833 72 217 2.0 5.0 0.00 0.00 0.00 71 1014.4
20260904164333 71 217 2.0 4.0 0.00 0.00 0.00 72 1014.3
20260904163834 71 217 1.0 3.0 0.00 0.00 0.00 74 1014.3
20260904163334 70 217 2.0 5.0 0.00 0.00 0.00 76 1014.2
20260904162833 69 217 3.0 5.0 0.00 0.00 0.00 75 1014.2
20260904162334 69 217 3.0 6.0 0.00 0.00 0.00 77 1014.2
20260904161833 69 217 3.0 6.0 0.00 0.00 0.00 77 1014.1
20260904161333 68 219 3.0 4.0 0.00 0.00 0.00 79 1014.1
20260904160833 68 219 3.0 4.0 0.00 0.00 0.00 80 1014.1
20260904160334 68 219 2.0 4.0 0.00 0.00 0.00 80 1014.1
20260904155835 67 219 2.0 5.0 0.00 0.00 0.00 81 1014.0
20260904155334 67 219 2.0 5.0 0.00 0.00 0.00 82 1014.1
20260904154834 67 219 2.0 5.0 0.00 0.00 0.00 82 1014.2
20260904154334 67 219 3.0 5.0 0.00 0.00 0.00 82 1014.1
20260904153834 67 219 2.0 5.0 0.00 0.00 0.00 83 1014.2
20260904153333 67 219 1.0 4.0 0.00 0.00 0.00 84 1014.2
20260904152832 66 219 1.0 4.0 0.00 0.00 0.00 84 1014.0
20260904152331 66 219 2.0 4.0 0.00 0.00 0.00 84 1014.1
20260904151831 65 219 2.0 5.0 0.00 0.00 0.00 84 1014.1
20260904151332 65 219 1.0 5.0 0.00 0.00 0.00 84 1014.1
20260904150831 65 219 1.0 4.0 0.00 0.00 0.00 84 1014.2
20260904150333 65 219 1.0 3.0 0.00 0.00 0.00 84 1014.1
20260904145832 65 219 1.0 4.0 0.00 0.00 0.00 84 1014.0
20260904145333 65 219 1.0 4.0 0.00 0.00 0.00 85 1014.0
20260904144832 65 219 0.0 3.0 0.00 0.00 0.00 85 1014.0
20260904144332 64 219 1.0 3.0 0.00 0.00 0.00 84 1014.0
20260904143831 64 219 1.0 3.0 0.00 0.00 0.00 85 1014.0
20260904143332 64 219 0.0 3.0 0.00 0.00 0.00 85 1014.0
20260904143105 64 219 0.0 0.0 0.00 0.00 0.00 85 1014.1
20260904142332 64 219 0.0 0.0 0.00 0.00 0.00 85 1014.0
20260904141831 63 219 0.0 0.0 0.00 0.00 0.00 85 1013.9
20260904141332 63 219 0.0 0.0 0.00 0.00 0.00 85 1013.8
20260904140833 63 219 0.0 0.0 0.00 0.00 0.00 85 1013.7
20260904140604 63 219 0.0 0.0 0.00 0.00 0.00 85 1013.7
20260904135832 63 219 0.0 0.0 0.00 0.00 0.00 85 1013.7
20260904135332 63 219 0.0 0.0 0.00 0.00 0.00 85 1013.6
20260904134832 62 219 0.0 0.0 0.00 0.00 0.00 85 1013.7
20260904134331 62 219 0.0 0.0 0.00 0.00 0.00 85 1013.6
20260904133832 62 219 0.0 0.0 0.00 0.00 0.00 85 1013.6
20260904133332 62 219 0.0 0.0 0.00 0.00 0.00 85 1013.5
20260904132831 62 219 0.0 0.0 0.00 0.00 0.00 84 1013.5
20260904132332 62 219 0.0 0.0 0.00 0.00 0.00 84 1013.6
20260904132103 62 219 0.0 0.0 0.00 0.00 0.00 84 1013.6
20260904131603 63 219 0.0 0.0 0.00 0.00 0.00 84 1013.6
20260904130831 63 219 0.0 0.0 0.00 0.00 0.00 84 1013.6
20260904130333 63 219 0.0 0.0 0.00 0.00 0.00 84 1013.6
20260904125832 63 219 0.0 0.0 0.00 0.00 0.00 84 1013.6
20260904125333 63 219 0.0 2.0 0.00 0.00 0.00 84 1013.6
20260904124833 63 219 0.0 2.0 0.00 0.00 0.00 83 1013.5
20260904124332 63 219 1.0 2.0 0.00 0.00 0.00 83 1013.5
20260904123332 63 219 1.0 4.0 0.00 0.00 0.00 83 1013.4
20260904122833 64 219 1.0 4.0 0.00 0.00 0.00 83 1013.3
20260904122332 64 219 1.0 4.0 0.00 0.00 0.00 83 1013.2
20260904121833 64 219 1.0 4.0 0.00 0.00 0.00 83 1013.1
20260904121606 64 219 1.0 4.0 0.00 0.00 0.00 83 1013.1
20260904120834 64 219 0.0 3.0 0.00 0.00 0.00 83 1013.1
20260904120334 64 219 0.0 2.0 0.00 0.00 0.00 82 1013.1
20260904115331 64 219 1.0 4.0 0.00 0.00 0.00 83 1013.0
20260904114833 64 219 1.0 4.0 0.00 0.00 0.00 83 1013.0
20260904114333 64 219 1.0 3.0 0.00 0.00 0.00 83 1013.1
20260904113832 64 219 0.0 4.0 0.00 0.00 0.00 83 1013.1
20260904113334 64 219 0.0 4.0 0.00 0.00 0.00 83 1013.1
20260904112833 64 219 0.0 3.0 0.00 0.00 0.00 83 1013.0
20260904112605 64 219 0.0 3.0 0.00 0.00 0.00 83 1013.0
20260904111829 64 219 0.0 2.0 0.00 0.00 0.00 83 1013.0
20260904111332 64 219 0.0 0.0 0.00 0.00 0.00 83 1013.0
20260904110829 64 219 0.0 0.0 0.00 0.00 0.00 83 1013.1
20260904110329 64 219 0.0 1.0 0.00 0.00 0.00 83 1013.1
20260904105824 64 219 0.0 2.0 0.00 0.00 0.00 83 1013.0
20260904105325 64 219 0.0 2.0 0.00 0.00 0.00 83 1013.1
20260904104555 64 219 1.0 4.0 0.00 0.00 0.00 83 1013.1
20260904103820 64 219 1.0 4.0 0.00 0.00 0.00 83 1013.1
20260904103320 64 219 1.0 4.0 0.00 0.00 0.00 83 1013.1
20260904102820 63 219 0.0 4.0 0.00 0.00 0.00 83 1013.1
20260904102319 63 219 0.0 0.0 0.00 0.00 0.00 82 1013.1
20260904101820 63 219 0.0 0.0 0.00 0.00 0.00 83 1013.1
20260904101319 64 219 0.0 0.0 0.00 0.00 0.00 83 1013.2
20260904100820 63 219 0.0 0.0 0.00 0.00 0.00 82 1013.1
20260904100317 64 219 0.0 0.0 0.00 0.00 0.00 82 1013.1
20260904095817 64 219 0.0 0.0 0.00 0.00 0.00 82 1013.1
20260904095317 64 219 0.0 0.0 0.00 0.00 0.00 82 1013.1
20260904094816 64 219 0.0 0.0 0.00 0.00 0.00 82 1013.1
20260904094313 64 219 0.0 0.0 0.00 0.00 0.00 82 1013.1
20260904093814 64 219 0.0 0.0 0.00 0.00 0.00 82 1013.0
20260904093311 64 219 0.0 0.0 0.00 0.00 0.00 82 1013.0
20260904092812 64 219 0.0 0.0 0.00 0.00 0.00 82 1013.1
20260904091810 64 219 0.0 2.0 0.00 0.00 0.00 81 1013.0
20260904091308 65 219 0.0 2.0 0.00 0.00 0.00 81 1013.0
20260904090806 65 219 0.0 1.0 0.00 0.00 0.00 81 1013.0
20260904090305 65 219 0.0 2.0 0.00 0.00 0.00 81 1013.0
20260904085806 65 219 1.0 2.0 0.00 0.00 0.00 80 1013.0
20260904085305 65 219 1.0 2.0 0.00 0.00 0.00 80 1013.0
20260904084803 65 219 0.0 2.0 0.00 0.00 0.00 80 1013.0
20260904084301 65 219 1.0 3.0 0.00 0.00 0.00 80 1013.1
20260904083801 65 219 1.0 4.0 0.00 0.00 0.00 80 1013.1
20260904083303 65 219 1.0 4.0 0.00 0.00 0.00 79 1013.2
20260904082803 65 219 2.0 4.0 0.00 0.00 0.00 79 1013.2
20260904082305 65 219 1.0 4.0 0.00 0.00 0.00 79 1013.2
20260904081802 65 219 1.0 3.0 0.00 0.00 0.00 78 1013.2
20260904081300 65 219 1.0 3.0 0.00 0.00 0.00 78 1013.1
20260904080801 65 219 1.0 3.0 0.00 0.00 0.00 78 1013.2
20260904080259 65 219 0.0 3.0 0.00 0.00 0.00 78 1013.1
20260904075759 65 219 0.0 2.0 0.00 0.00 0.00 77 1013.1
20260904075256 65 219 0.0 2.0 0.00 0.00 0.00 77 1013.2
20260904074753 65 219 0.0 2.0 0.00 0.00 0.00 77 1013.2
20260904074256 65 219 0.0 2.0 0.00 0.00 0.00 77 1013.2
20260904073754 65 219 1.0 3.0 0.00 0.00 0.00 76 1013.2
20260904073251 66 219 1.0 3.0 0.00 0.00 0.00 77 1013.2
20260904072752 66 219 1.0 3.0 0.00 0.00 0.00 76 1013.2
20260904071751 66 219 0.0 2.0 0.00 0.00 0.00 75 1013.1
20260904071244 66 219 1.0 3.0 0.00 0.00 0.00 75 1013.1
20260904070743 66 219 1.0 3.0 0.00 0.00 0.00 75 1013.0
20260904070247 66 219 1.0 4.0 0.00 0.00 0.00 75 1013.1
20260904065741 67 219 1.0 4.0 0.00 0.00 0.00 75 1013.1
20260904065241 67 219 2.0 6.0 0.00 0.00 0.00 75 1013.2
20260904065012 67 219 2.0 6.0 0.00 0.00 0.00 75 1013.2
20260904064241 67 219 3.0 5.0 0.00 0.00 0.00 75 1013.1
20260904063741 67 219 3.0 7.0 0.00 0.00 0.00 75 1013.1
20260904063238 67 219 3.0 7.0 0.00 0.00 0.00 75 1013.1
20260904063010 67 219 3.0 7.0 0.00 0.00 0.00 75 1013.1
20260904062232 67 219 3.0 7.0 0.00 0.00 0.00 75 1013.1